Time,TemperatureF,DewpointF,PressureIn,WindDirection,WindDirectionDegrees,WindSpeedMPH,WindSpeedGustMPH,Humidity,HourlyPrecipIn,Conditions,Clouds,dailyrainin,SoftwareType,DateUTC
2013-06-02 00:02:00,70.0,-99.9,29.74,North,360,0.0,-999.0,97,-99.99,,,-99.99,,2013-06-02 04:02:00,
2013-06-02 00:13:00,70.0,69.0,29.74,North,360,0.0,-999.0,97,-99.99,,,-99.99,,2013-06-02 04:13:00,
2013-06-02 00:23:00,69.0,68.0,29.77,WSW,245,2.0,-999.0,96,-99.99,,,-99.99,,2013-06-02 04:23:00,
2013-06-02 00:33:00,68.0,67.0,29.76,WSW,246,0.0,-999.0,96,-99.99,,,-99.99,,2013-06-02 04:33:00,
2013-06-02 00:42:00,68.0,67.0,29.76,WSW,246,0.0,-999.0,96,-99.99,,,-99.99,,2013-06-02 04:42:00,
2013-06-02 00:53:00,67.0,66.0,29.75,WSW,246,0.0,-999.0,96,-99.99,,,-99.99,,2013-06-02 04:53:00,
2013-06-02 01:02:00,67.0,66.0,29.74,WSW,247,0.0,-999.0,97,-99.99,,,-99.99,,2013-06-02 05:02:00,
2013-06-02 01:12:00,67.0,66.0,29.74,WSW,247,0.0,-999.0,97,-99.99,,,-99.99,,2013-06-02 05:12:00,
2013-06-02 01:22:00,67.0,66.0,29.74,WSW,247,0.0,-999.0,97,-99.99,,,-99.99,,2013-06-02 05:22:00,
2013-06-02 01:32:00,67.0,66.0,29.73,WSW,246,0.0,-999.0,97,-99.99,,,-99.99,,2013-06-02 05:32:00,
2013-06-02 01:42:00,67.0,66.0,29.73,WSW,246,0.0,-999.0,97,-99.99,,,-99.99,,2013-06-02 05:42:00,
2013-06-02 01:52:00,67.0,66.0,29.73,WSW,246,0.0,-999.0,97,-99.99,,,-99.99,,2013-06-02 05:52:00,
2013-06-02 02:01:00,67.0,66.0,29.73,WSW,246,0.0,-999.0,97,-99.99,,,-99.99,,2013-06-02 06:01:00,
2013-06-02 02:12:00,67.0,66.0,29.73,NE,51,0.0,-999.0,97,-99.99,,,-99.99,,2013-06-02 06:12:00,
2013-06-02 02:21:00,67.0,66.0,29.73,NE,51,0.0,-999.0,97,-99.99,,,-99.99,,2013-06-02 06:21:00,
2013-06-02 02:32:00,67.0,66.0,29.73,ESE,103,0.0,-999.0,97,-99.99,,,-99.99,,2013-06-02 06:32:00,
2013-06-02 02:42:00,67.0,66.0,29.73,ESE,103,0.0,-999.0,97,-99.99,,,-99.99,,2013-06-02 06:42:00,
2013-06-02 02:52:00,67.0,66.0,29.73,ESE,103,0.0,-999.0,97,-99.99,,,-99.99,,2013-06-02 06:52:00,
2013-06-02 03:01:00,67.0,66.0,29.73,South,169,0.0,-999.0,97,-99.99,,,-99.99,,2013-06-02 07:01:00,
2013-06-02 03:11:00,67.0,66.0,29.73,South,169,0.0,-999.0,97,-99.99,,,-99.99,,2013-06-02 07:11:00,
2013-06-02 03:22:00,67.0,66.0,29.73,South,169,0.0,-999.0,97,-99.99,,,-99.99,,2013-06-02 07:22:00,
2013-06-02 03:32:00,67.0,66.0,29.73,SSE,168,0.0,-999.0,97,-99.99,,,-99.99,,2013-06-02 07:32:00,
2013-06-02 03:42:00,67.0,66.0,29.73,SSE,168,0.0,-999.0,98,-99.99,,,-99.99,,2013-06-02 07:42:00,
2013-06-02 03:52:00,67.0,66.0,29.73,SSE,168,0.0,-999.0,98,-99.99,,,-99.99,,2013-06-02 07:52:00,
2013-06-02 04:02:00,67.0,66.0,29.73,SSE,168,0.0,-999.0,98,-99.99,,,-99.99,,2013-06-02 08:02:00,
2013-06-02 04:12:00,67.0,66.0,29.73,SSE,168,0.0,-999.0,98,-99.99,,,-99.99,,2013-06-02 08:12:00,
2013-06-02 04:21:00,68.0,67.0,29.74,SSE,168,0.0,-999.0,98,-99.99,,,-99.99,,2013-06-02 08:21:00,
2013-06-02 04:32:00,68.0,67.0,29.73,SSE,168,0.0,-999.0,98,-99.99,,,-99.99,,2013-06-02 08:32:00,
2013-06-02 06:22:00,67.0,66.0,29.74,WSW,256,0.0,-999.0,97,-99.99,,,-99.99,,2013-06-02 10:22:00,
2013-06-02 06:32:00,66.0,65.0,29.74,WSW,256,0.0,-999.0,97,-99.99,,,-99.99,,2013-06-02 10:32:00,
2013-06-02 06:42:00,66.0,65.0,29.74,WSW,256,0.0,-999.0,97,-99.99,,,-99.99,,2013-06-02 10:42:00,
2013-06-02 06:52:00,66.0,65.0,29.75,WSW,257,0.0,-999.0,96,-99.99,,,-99.99,,2013-06-02 10:52:00,
2013-06-02 07:02:00,66.0,65.0,29.75,SSE,167,0.0,-999.0,96,-99.99,,,-99.99,,2013-06-02 11:02:00,
2013-06-02 07:12:00,66.0,65.0,29.75,SSE,167,0.0,-999.0,96,-99.99,,,-99.99,,2013-06-02 11:12:00,
2013-06-02 07:22:00,66.0,65.0,29.75,West,270,0.0,-999.0,96,-99.99,,,-99.99,,2013-06-02 11:22:00,
2013-06-02 07:32:00,67.0,66.0,29.76,West,271,0.0,-999.0,95,-99.99,,,-99.99,,2013-06-02 11:32:00,
2013-06-02 07:42:00,67.0,66.0,29.76,West,271,0.0,-999.0,95,-99.99,,,-99.99,,2013-06-02 11:42:00,
2013-06-02 07:52:00,67.0,65.0,29.76,WNW,286,0.0,-999.0,94,-99.99,,,-99.99,,2013-06-02 11:52:00,
2013-06-02 08:01:00,67.0,65.0,29.77,ENE,61,0.0,-999.0,93,-99.99,,,-99.99,,2013-06-02 12:01:00,
2013-06-02 08:11:00,67.0,65.0,29.77,ENE,61,0.0,-999.0,93,-99.99,,,-99.99,,2013-06-02 12:11:00,
2013-06-02 08:22:00,68.0,65.0,29.77,West,265,1.0,-999.0,91,-99.99,,,-99.99,,2013-06-02 12:22:00,
2013-06-02 08:32:00,68.0,65.0,29.78,SSW,203,1.0,-999.0,90,-99.99,,,-99.99,,2013-06-02 12:32:00,
2013-06-02 08:42:00,68.0,65.0,29.78,SSW,203,1.0,-999.0,90,-99.99,,,-99.99,,2013-06-02 12:42:00,
2013-06-02 08:52:00,68.0,65.0,29.78,South,191,0.0,-999.0,89,-99.99,,,-99.99,,2013-06-02 12:52:00,
2013-06-02 09:01:00,69.0,65.0,29.78,NNW,345,0.0,-999.0,87,-99.99,,,-99.99,,2013-06-02 13:01:00,
2013-06-02 09:12:00,69.0,65.0,29.78,NNW,345,0.0,-999.0,87,-99.99,,,-99.99,,2013-06-02 13:12:00,
2013-06-02 09:21:00,68.0,64.0,29.78,WNW,303,1.0,-999.0,86,-99.99,,,-99.99,,2013-06-02 13:21:00,
2013-06-02 09:32:00,69.0,64.0,29.78,SSW,211,1.0,-999.0,85,-99.99,,,-99.99,,2013-06-02 13:32:00,
2013-06-02 09:42:00,69.0,64.0,29.78,SSW,211,1.0,-999.0,85,-99.99,,,-99.99,,2013-06-02 13:42:00,
2013-06-02 09:52:00,70.0,64.0,29.78,WNW,285,1.0,-999.0,81,-99.99,,,-99.99,,2013-06-02 13:52:00,
2013-06-02 10:02:00,70.0,63.0,29.78,West,277,1.0,-999.0,79,-99.99,,,-99.99,,2013-06-02 14:02:00,
2013-06-02 10:11:00,70.0,63.0,29.78,West,277,1.0,-999.0,79,-99.99,,,-99.99,,2013-06-02 14:11:00,
2013-06-02 10:21:00,71.0,64.0,29.78,West,280,1.0,-999.0,78,-99.99,,,-99.99,,2013-06-02 14:21:00,
2013-06-02 10:32:00,71.0,63.0,29.79,South,191,2.0,-999.0,76,-99.99,,,-99.99,,2013-06-02 14:32:00,
2013-06-02 10:42:00,71.0,63.0,29.79,South,191,2.0,-999.0,76,-99.99,,,-99.99,,2013-06-02 14:42:00,
2013-06-02 10:52:00,71.0,63.0,29.79,WNW,296,2.0,-999.0,77,-99.99,,,-99.99,,2013-06-02 14:52:00,
2013-06-02 11:01:00,71.0,63.0,29.80,WSW,252,2.0,-999.0,77,-99.99,,,-99.99,,2013-06-02 15:01:00,
2013-06-02 11:11:00,71.0,63.0,29.80,WSW,252,2.0,-999.0,77,-99.99,,,-99.99,,2013-06-02 15:11:00,
2013-06-02 11:21:00,72.0,63.0,29.80,West,278,2.0,-999.0,73,-99.99,,,-99.99,,2013-06-02 15:21:00,
2013-06-02 11:33:00,72.0,62.0,29.81,NW,322,2.0,-999.0,71,-99.99,,,-99.99,,2013-06-02 15:33:00,
2013-06-02 11:43:00,72.0,62.0,29.81,West,260,2.0,-999.0,72,-99.99,,,-99.99,,2013-06-02 15:43:00,
2013-06-02 11:53:00,72.0,62.0,29.81,West,260,2.0,-999.0,72,-99.99,,,-99.99,,2013-06-02 15:53:00,
2013-06-02 12:03:00,72.0,62.0,29.81,WSW,238,3.0,-999.0,71,-99.99,,,-99.99,,2013-06-02 16:03:00,
2013-06-02 12:13:00,72.0,62.0,29.81,WSW,238,3.0,-999.0,71,-99.99,,,-99.99,,2013-06-02 16:13:00,
2013-06-02 12:23:00,73.0,63.0,29.81,West,265,2.0,-999.0,71,-99.99,,,-99.99,,2013-06-02 16:23:00,
2013-06-02 12:33:00,74.0,63.0,29.82,West,280,2.0,-999.0,68,-99.99,,,-99.99,,2013-06-02 16:33:00,
2013-06-02 12:42:00,74.0,63.0,29.82,West,280,2.0,-999.0,68,-99.99,,,-99.99,,2013-06-02 16:42:00,
2013-06-02 12:53:00,74.0,63.0,29.82,West,271,2.0,-999.0,69,-99.99,,,-99.99,,2013-06-02 16:53:00,
2013-06-02 13:02:00,74.0,63.0,29.82,West,261,3.0,-999.0,69,-99.99,,,-99.99,,2013-06-02 17:02:00,
2013-06-02 13:12:00,74.0,63.0,29.82,West,261,3.0,-999.0,69,-99.99,,,-99.99,,2013-06-02 17:12:00,
2013-06-02 13:23:00,75.0,64.0,29.82,SW,219,3.0,-999.0,68,-99.99,,,-99.99,,2013-06-02 17:23:00,
2013-06-02 13:32:00,75.0,64.0,29.83,SW,222,2.0,-999.0,68,-99.99,,,-99.99,,2013-06-02 17:32:00,
2013-06-02 13:42:00,74.0,63.0,29.82,WSW,249,2.0,-999.0,68,-99.99,,,-99.99,,2013-06-02 17:42:00,
2013-06-02 13:52:00,74.0,63.0,29.82,WSW,249,2.0,-999.0,68,-99.99,,,-99.99,,2013-06-02 17:52:00,
2013-06-02 14:02:00,75.0,64.0,29.83,WNW,290,2.0,-999.0,68,-99.99,,,-99.99,,2013-06-02 18:02:00,
2013-06-02 14:11:00,75.0,64.0,29.83,WNW,290,2.0,-999.0,68,-99.99,,,-99.99,,2013-06-02 18:11:00,
2013-06-02 14:21:00,75.0,63.0,29.83,WNW,297,3.0,-999.0,66,-99.99,,,-99.99,,2013-06-02 18:21:00,
2013-06-02 14:32:00,76.0,63.0,29.83,West,265,2.0,-999.0,64,-99.99,,,-99.99,,2013-06-02 18:32:00,
2013-06-02 14:42:00,76.0,63.0,29.83,WNW,299,2.0,-999.0,65,-99.99,,,-99.99,,2013-06-02 18:42:00,
2013-06-02 14:52:00,76.0,63.0,29.83,WNW,299,2.0,-999.0,65,-99.99,,,-99.99,,2013-06-02 18:52:00,
2013-06-02 15:01:00,76.0,63.0,29.83,SSW,213,1.0,-999.0,65,-99.99,,,-99.99,,2013-06-02 19:01:00,
2013-06-02 15:11:00,76.0,63.0,29.83,SSW,213,1.0,-999.0,65,-99.99,,,-99.99,,2013-06-02 19:11:00,
2013-06-02 15:21:00,76.0,63.0,29.83,SSW,210,2.0,-999.0,64,-99.99,,,-99.99,,2013-06-02 19:21:00,
2013-06-02 15:32:00,76.0,63.0,29.83,West,279,2.0,-999.0,64,-99.99,,,-99.99,,2013-06-02 19:32:00,
2013-06-02 15:42:00,76.0,63.0,29.83,West,279,2.0,-999.0,64,-99.99,,,-99.99,,2013-06-02 19:42:00,
2013-06-02 15:52:00,75.0,62.0,29.83,West,274,3.0,-999.0,63,-99.99,,,-99.99,,2013-06-02 19:52:00,
2013-06-02 16:02:00,75.0,62.0,29.83,WNW,283,1.0,-999.0,65,-99.99,,,-99.99,,2013-06-02 20:02:00,
2013-06-02 16:11:00,75.0,62.0,29.83,WNW,283,1.0,-999.0,65,-99.99,,,-99.99,,2013-06-02 20:11:00,
2013-06-02 16:22:00,75.0,64.0,29.83,WNW,296,1.0,-999.0,69,-99.99,,,-99.99,,2013-06-02 20:22:00,
2013-06-02 16:32:00,74.0,64.0,29.83,NW,304,1.0,-999.0,70,-99.99,,,-99.99,,2013-06-02 20:32:00,
2013-06-02 16:42:00,74.0,64.0,29.83,NW,304,1.0,-999.0,70,-99.99,,,-99.99,,2013-06-02 20:42:00,
2013-06-02 16:52:00,73.0,63.0,29.82,NW,310,1.0,-999.0,70,-99.99,,,-99.99,,2013-06-02 20:52:00,
2013-06-02 17:01:00,73.0,63.0,29.82,WNW,303,2.0,-999.0,71,-99.99,,,-99.99,,2013-06-02 21:01:00,
2013-06-02 17:12:00,73.0,63.0,29.82,WNW,303,2.0,-999.0,71,-99.99,,,-99.99,,2013-06-02 21:12:00,
2013-06-02 17:21:00,73.0,63.0,29.82,West,269,2.0,-999.0,70,-99.99,,,-99.99,,2013-06-02 21:21:00,
2013-06-02 17:33:00,72.0,62.0,29.83,WNW,290,3.0,-999.0,71,-99.99,,,-99.99,,2013-06-02 21:33:00,
2013-06-02 17:42:00,72.0,62.0,29.83,WNW,290,3.0,-999.0,71,-99.99,,,-99.99,,2013-06-02 21:42:00,
2013-06-02 17:53:00,72.0,63.0,29.83,West,269,3.0,-999.0,73,-99.99,,,-99.99,,2013-06-02 21:53:00,
2013-06-02 18:03:00,71.0,62.0,29.83,West,281,3.0,-999.0,74,-99.99,,,-99.99,,2013-06-02 22:03:00,
2013-06-02 18:12:00,71.0,62.0,29.83,West,281,3.0,-999.0,74,-99.99,,,-99.99,,2013-06-02 22:12:00,
2013-06-02 18:23:00,71.0,63.0,29.83,WNW,297,3.0,-999.0,75,-99.99,,,-99.99,,2013-06-02 22:23:00,
2013-06-02 18:33:00,70.0,62.0,29.84,WNW,298,3.0,-999.0,76,-99.99,,,-99.99,,2013-06-02 22:33:00,
2013-06-02 18:42:00,70.0,62.0,29.84,WNW,298,3.0,-999.0,76,-99.99,,,-99.99,,2013-06-02 22:42:00,
2013-06-02 18:53:00,69.0,61.0,29.83,WNW,289,2.0,-999.0,77,-99.99,,,-99.99,,2013-06-02 22:53:00,
2013-06-02 19:00:00,69.0,61.0,29.84,WNW,285,2.0,-999.0,77,-99.99,,,-99.99,,2013-06-02 23:00:00,
2013-06-02 19:02:00,69.0,61.0,29.83,NW,306,2.0,-999.0,77,-99.99,,,-99.99,,2013-06-02 23:02:00,
2013-06-02 19:12:00,69.0,61.0,29.83,NW,306,2.0,-999.0,77,-99.99,,,-99.99,,2013-06-02 23:12:00,
2013-06-02 19:22:00,69.0,61.0,29.84,WNW,285,2.0,-999.0,77,-99.99,,,-99.99,,2013-06-02 23:22:00,
2013-06-02 19:32:00,69.0,61.0,29.84,WNW,285,2.0,-999.0,77,-99.99,,,-99.99,,2013-06-02 23:32:00,
2013-06-02 19:42:00,69.0,61.0,29.84,WNW,285,2.0,-999.0,77,-99.99,,,-99.99,,2013-06-02 23:42:00,
2013-06-02 19:52:00,69.0,61.0,29.84,WNW,285,2.0,-999.0,77,-99.99,,,-99.99,,2013-06-02 23:52:00,